Flag for Australia Weather past 2 weeks in Uluru, Northern Territory, Australia

Now
79 °F

Sunny.


Feels Like: 78 °F
Forecast: 70 / 103 °F
Wind: 9 mph from East

Location: Ayers Rock

Current Time: Oct 23, 2014 at 8:17:50 AM

Latest Report: Oct 23, 2014 at 7:30 AM


Visibility: N/A

Pressure: 30.04 "Hg

Humidity: 18%

Dew point: 32 °F

Location of UluruLocation

Historic Weather in Uluru — Graph

°F

Uluru temperature yesterday

Maximum temperature yesterday: 102 °F (at 3:30 PM)
Minimum temperature yesterday: 72 °F (at 6:30 AM)
Average temperature yesterday: 89 °F

Past Weeks' High & Low Weather Summary

 TemperatureHumidityPressure
High102 °F (Oct 21, 2:30 PM)44% (Oct 11, 6:30 AM)30.27 "Hg (Oct 11, 6:30 AM)
Low48 °F (Oct 16, 3:30 AM)3% (Oct 18, 4:30 PM)29.86 "Hg (Oct 10, 1:30 AM)
Average76 °F14%30.05 "Hg
* Reported Oct 8 6:30 AM — Oct 23 6:30 AM, Uluru, Weather by CustomWeather, © 2014

Note: Actual official high and low records may vary slightly from our data, if they occured in-between our weather recording intervals... More about our weather records

Advertising

Uluru weather history for previous 24 hours

 ConditionsComfort  
Time TempWeatherWind HumidityBarometerVisibility
6:30 AM
Oct 23
66 °FSunny.1 mph28%30.01 "HgN/A
5:30 AM72 °FClear.6 mph23%29.98 "HgN/A
4:30 AM73 °FClear.6 mph22%29.98 "HgN/A
3:30 AM75 °FClear.7 mph21%29.98 "HgN/A
2:30 AM77 °FClear.7 mph19%29.98 "HgN/A
1:30 AM81 °FClear.12 mph16%30.01 "HgN/A
12:30 AM82 °FClear.7 mph15%30.01 "HgN/A
11:30 PM
Oct 22
86 °FClear.9 mph11%30.01 "HgN/A
10:30 PM84 °FClear.5 mph11%30.01 "HgN/A
9:30 PM88 °FClear.6 mph10%29.98 "HgN/A
8:30 PM91 °FClear.6 mph9%29.98 "HgN/A
7:30 PM95 °FClear.7 mph8%29.98 "HgN/A
6:30 PM99 °FClear.6 mph7%29.95 "HgN/A
5:30 PM100 °FSunny.6 mph7%29.92 "HgN/A
4:30 PM102 °FSunny.5 mph7%29.95 "HgN/A
3:30 PM102 °FSunny.8 mph7%29.95 "HgN/A
2:30 PM100 °FSunny.9 mph7%29.98 "HgN/A
1:30 PM100 °FSunny.12 mph6%30.01 "HgN/A
12:30 PM99 °FSunny.12 mph7%30.04 "Hg4 mi
11:30 AM95 °FSunny.8 mph8%30.07 "HgN/A
10:30 AM95 °FSunny.8 mph9%30.09 "HgN/A
9:30 AM90 °FSunny.10 mph14%30.09 "HgN/A
8:30 AM84 °FSunny.12 mph19%30.09 "HgN/A
Weather by CustomWeather, © 2014

See weather overviewHow to use our weather pages